Flag for U.S.A. Weather past 2 weeks in St. Petersburg, Florida, U.S.A.

Now
77 °F

Sunny.


Feels Like: 79 °F
Forecast: 67 / 79 °F
Wind: 9 mph from Northwest

Location: Whitted Airport

Current Time: Apr 1, 2015 at 6:08:18 PM

Latest Report: Apr 1, 2015 at 4:53 PM


Visibility: 10 mi

Pressure: 30.07 "Hg

Humidity: 54%

Dew point: 59 °F

Location of St. PetersburgLocation

Historic Weather in St. Petersburg — Graph

°F

St. Petersburg temperature yesterday

Maximum temperature yesterday: 76 °F (at 2:53 PM)
Minimum temperature yesterday: 67 °F (at 4:53 AM)
Average temperature yesterday: 71 °F

Past Weeks' High & Low Weather Summary

 TemperatureHumidityPressure
High83 °F (Mar 26, 1:53 PM)93% (Mar 24, 3:53 AM)30.35 "Hg (Mar 24, 3:53 AM)
Low57 °F (Mar 30, 5:53 AM)33% (Mar 28, 1:53 PM)29.81 "Hg (Mar 27, 5:53 AM)
Average72 °F71%30.05 "Hg
* Reported Mar 17 4:53 PM — Apr 1 4:53 PM, St. Petersburg, Weather by CustomWeather, © 2015

Note: Actual official high and low records may vary slightly from our data, if they occured in-between our weather recording intervals... More about our weather records

Advertising

St. Petersburg weather history for previous 24 hours

 ConditionsComfort  
Time TempWeatherWind HumidityBarometerVisibility
4:53 PM
Wed, Apr 1
77 °FSunny.9 mph54%30.07 "Hg10 mi
3:53 PM78 °FSunny.10 mph50%30.07 "Hg10 mi
2:53 PM78 °FSunny.8 mph50%30.09 "Hg10 mi
1:53 PM77 °FSunny.14 mph54%30.11 "Hg10 mi
12:53 PM77 °FSunny.7 mph52%30.14 "Hg10 mi
11:53 AM76 °FSunny.9 mph58%30.15 "Hg10 mi
10:53 AM75 °FSunny.8 mph58%30.16 "Hg10 mi
9:53 AM72 °FSunny.8 mph71%30.14 "Hg10 mi
8:53 AM70 °FSunny.7 mph79%30.13 "Hg10 mi
7:53 AM69 °FClear.6 mph81%30.11 "Hg10 mi
6:53 AM69 °FClear.5 mph81%30.08 "Hg10 mi
5:53 AM69 °FClear.7 mph84%30.06 "Hg10 mi
4:53 AM69 °FClear.6 mph87%30.06 "Hg10 mi
3:53 AM69 °FClear.6 mph87%30.07 "Hg10 mi
2:53 AM69 °FClear.5 mph87%30.09 "Hg10 mi
1:53 AM69 °FClear.5 mph87%30.11 "Hg10 mi
12:53 AM70 °FClear.5 mph84%30.11 "Hg10 mi
11:53 PM
Tue, Mar 31
70 °FClear.6 mph84%30.11 "Hg10 mi
10:53 PM70 °FClear.5 mph84%30.11 "Hg10 mi
9:53 PM71 °FClear.6 mph78%30.10 "Hg10 mi
8:53 PM71 °FClear.7 mph81%30.09 "Hg10 mi
7:53 PM72 °FSunny.10 mph76%30.08 "Hg10 mi
7:00 PM74 °FScattered clouds.9 mph71%30.08 "Hg10 mi
Weather by CustomWeather, © 2015

See weather overviewHow to use our weather pages